User: anonymous   Login
Location: ??
(34.9170°N, 135.5016°E)
Time: 19:57:23
(UTC+00:00)
Language:

S-56A Canister/Altair - Orbit

View from above orbital plane
View from above orbital plane
View from above satellite
View from above satellite

Ground track
Ground track

The orbit data is extracted from the following two-line orbital elements,

1 00082U 61004B   21062.40367137 -.00000081  00000-0 -40889-4 0  9997
2 00082  38.8656 319.5274 1176546 253.3852  93.4626 12.26044180839599
Epoch (UTC): 03 March 2021 09:41:17
Eccentricity: 0.1176546
inclination: 38.8656°
perigee height: 631 km
apogee height: 2501 km
right ascension of ascending node: 319.5274°
argument of perigee: 253.3852°
revolutions per day: 12.26044180
mean anomaly at epoch: 93.4626°
orbit number at epoch: 83959

The dashed part of the orbit path shows where the satellite is in the earth's shadow,  

DLR